Date,TemperatureHighF,TemperatureAvgF,TemperatureLowF,DewpointHighF,DewpointAvgF,DewpointLowF,HumidityHigh,HumidityAvg,HumidityLow,PressureMaxIn,PressureMinIn,WindSpeedMaxMPH,WindSpeedAvgMPH,GustSpeedMaxMPH,PrecipitationSumIn
2013-11-1,74.7,58.1,43.0,27.0,22.5,15.6,40,26,16,0.00,40.00,14,3,14,0.00
2013-11-2,76.6,60.2,44.4,28.2,24.7,21.0,46,28,13,0.00,40.00,21,4,21,0.00
2013-11-3,73.9,60.5,46.8,31.8,25.8,23.0,42,28,16,0.00,40.00,17,4,19,0.00
2013-11-4,68.4,59.6,52.0,33.3,25.6,17.1,42,28,16,0.00,40.00,18,5,19,0.00
2013-11-5,64.9,54.7,44.2,18.9,11.8,2.1,31,19,9,0.00,40.00,21,4,21,0.00
2013-11-6,69.3,54.7,40.5,16.5,10.3,5.5,30,18,9,0.00,40.00,12,2,12,0.00
2013-11-7,73.6,59.0,44.2,19.8,14.9,10.4,30,18,10,0.00,40.00,9,2,9,0.00
2013-11-8,73.2,58.6,44.6,21.2,16.9,12.0,33,21,11,0.00,40.00,9,2,9,0.00
2013-11-9,73.4,58.2,44.8,19.9,15.5,11.3,33,20,10,0.00,40.00,10,2,11,0.00
2013-11-10,74.8,58.6,43.2,19.6,15.4,11.1,31,19,10,0.00,40.00,9,2,9,0.00
2013-11-11,77.0,59.7,47.1,20.5,14.7,7.9,30,18,7,0.00,40.00,9,2,11,0.00
2013-11-12,70.9,60.4,51.4,24.4,17.2,10.9,29,19,12,0.00,40.00,8,2,8,0.00
2013-11-13,78.3,63.0,50.7,22.8,17.1,12.0,28,18,8,0.00,40.00,10,2,11,0.00
2013-11-14,79.3,67.7,55.9,30.6,24.9,20.1,35,21,12,0.00,40.00,36,8,37,0.00
2013-11-15,72.3,65.5,56.5,37.2,28.3,20.7,48,26,16,0.00,40.00,31,9,33,0.00
2013-11-16,66.7,57.6,50.7,37.6,34.1,24.8,58,42,28,0.00,40.00,23,5,23,0.00
2013-11-17,66.6,55.0,44.1,36.3,31.6,27.3,56,42,28,0.00,40.00,13,2,14,0.00
2013-11-18,68.5,56.5,44.8,38.7,34.2,27.7,57,44,31,0.00,40.00,19,4,21,0.00
2013-11-19,64.9,57.4,48.6,38.1,36.5,34.2,60,46,36,0.00,40.00,15,3,15,0.00
2013-11-20,69.3,59.5,51.1,43.0,38.0,34.0,56,46,33,0.00,40.00,29,6,29,0.00
2013-11-21,63.9,54.2,46.0,46.6,41.3,32.9,89,62,48,0.00,40.00,30,8,30,0.32
2013-11-22,47.5,43.9,40.8,37.4,35.2,31.6,86,72,57,0.00,40.00,33,12,33,0.30
2013-11-23,54.1,49.7,46.4,40.8,38.2,33.4,77,65,53,0.00,40.00,19,4,19,0.11
2013-11-24,59.9,51.0,43.5,41.0,37.4,31.5,79,61,36,0.00,40.00,8,2,8,0.01
2013-11-25,63.3,50.7,39.6,41.9,37.7,32.9,79,63,39,0.00,40.00,8,2,8,0.00
2013-11-26,63.7,52.6,42.1,40.5,36.9,30.7,78,58,30,0.00,40.00,10,2,10,0.00
2013-11-27,64.8,54.5,45.3,40.3,37.7,34.0,75,55,33,0.00,40.00,13,2,13,0.00
2013-11-28,61.9,53.4,45.7,41.4,36.0,30.9,71,53,32,0.00,40.00,12,3,13,0.00
2013-11-29,61.9,53.0,44.6,37.0,34.7,32.2,65,51,33,0.00,40.00,11,2,11,0.00
2013-11-30,65.5,54.5,46.8,36.5,33.5,30.4,66,47,28,0.00,40.00,10,3,10,0.00